Home   Weather   Bellinzona   Past weeks

Flag for Switzerland Past Weather in Bellinzona, Ticino, Switzerland — Yesterday and Last 2 Weeks

Now
38 °F

Chilly.


Feels Like: 38 °F
Forecast: 36 / 52 °F
Wind: No wind

Location: Locarno-Magadino

Current Time: Dec 5, 2016 at 11:37:08 am

Latest Report: Dec 5, 2016 at 10:00 am


Visibility: N/A

Pressure: 30.45 "Hg

Humidity: 86%

Dew Point: 35 °F

Location of BellinzonaLocation

Past Weather in Bellinzona — Graph

°F

Bellinzona Temperature Yesterday

Maximum temperature yesterday: 48 °F (at 3:00 pm)
Minimum temperature yesterday: 38 °F (at 7:00 am)
Average temperature yesterday: 42 °F

High & Low Weather Summary for the Past Weeks

 TemperatureHumidityPressure
High54 °F (Nov 26, 3:00 pm)100% (Nov 22, 5:00 am)30.61 "Hg (Nov 22, 5:00 am)
Low27 °F (Nov 30, 6:00 am)48% (Nov 29, 1:00 pm)29.86 "Hg (Nov 27, 3:00 pm)
Average43 °F90%30.16 "Hg
* Reported Nov 20 10:00 am — Dec 5 10:00 am, Bellinzona, Weather by CustomWeather, © 2016

Note: Actual official high and low records may vary slightly from our data, if they occured in-between our weather recording intervals... More about our weather records

Advertising

Bellinzona Weather History for the Previous 24 Hours

Scroll right to see more
 ConditionsComfort  
Time TempWeatherWind HumidityBarometerVisibility
10:00 am
Mon, Dec 5
38 °FChilly.No wind86%30.45 "HgN/A
9:00 am34 °FChilly.1 mph97%30.45 "HgN/A
8:00 am33 °FChilly.1 mph98%30.43 "HgN/A
7:00 am33 °FChilly.1 mph98%30.42 "HgN/A
6:00 am36 °FChilly.No wind97%30.40 "HgN/A
5:00 am38 °FChilly.No wind95%30.40 "HgN/A
4:00 am39 °FChilly.1 mph93%30.40 "HgN/A
3:00 am40 °FChilly.3 mph88%30.40 "HgN/A
2:00 am39 °FChilly.1 mph93%30.40 "HgN/A
1:00 am40 °FChilly.No wind92%30.40 "HgN/A
12:00 am40 °FQuite cool.No wind88%30.40 "HgN/A
11:00 pm
Sun, Dec 4
40 °FQuite cool.1 mph90%30.39 "HgN/A
10:00 pm40 °FQuite cool.No wind92%30.38 "HgN/A
9:00 pm44 °FQuite cool.5 mph79%30.37 "HgN/A
8:00 pm42 °FQuite cool.2 mph89%30.37 "HgN/A
7:00 pm41 °FQuite cool.No wind98%30.35 "HgN/A
6:00 pm42 °FQuite cool.1 mph95%30.34 "HgN/A
5:00 pm44 °FQuite cool.1 mph93%30.32 "HgN/A
4:00 pm46 °FCool.1 mph86%30.30 "HgN/A
3:00 pm48 °FCool.1 mph78%30.30 "HgN/A
2:00 pm47 °FCool.2 mph79%30.30 "HgN/A
1:00 pm46 °FCool.1 mph82%30.32 "HgN/A
12:00 pm46 °FCool.1 mph81%30.33 "HgN/A
11:00 am43 °FQuite cool.1 mph90%30.34 "HgN/A
Weather by CustomWeather, © 2016

See weather overviewHow to use our weather pages